CAPE
0 0 0 0 0 0 0 0 0 0 0 0 0 0 0 0 0 0 0 0 0 0 0 0 0 0 0 0 0 0 0 0 0 0 0 0 0 0 0 0 0 0 0 0 0
0 0 0 0 0 0 0 0 0 0 0 0 0 0 0 0 0 0 0 0 0 0 0 0 0 0 0 0 0 0 0 0 0 0 0 0 0 0 0 0 0 0 0 0 0
0 0 0 0 0 0 0 0 0 0 0 0 0 0 0 0 0 0 0 0 0 0 0 0 0 0 0 0 0 0 0 0 0 0 0 0 0 0 0 0 0 0 0 0 0
0 0 0 0 0 0 0 0 0 0 0 0 0 0 0 0 0 0 0 0 0 0 0 0 0 0 0 0 0 0 0 0 0 0 0 0 0 0 0 0 0 0 0 0 0
0 0 0 0 0 0 0 0 0 0 0 0 0 0 0 0 0 0 0 0 0 0 0 0 0 0 0 0 0 0 0 0 0 0 0 0 0 0 0 0 0 0 0 0 0
1 0 0 0 0 0 0 0 0 0 0 0 0 0 0 0 0 0 0 0 0 0 0 0 0 0 0 0 0 0 0 0 0 0 0 0 0 0 0 0 0 0 0 0 0
0 1 0 0 0 0 0 0 0 0 0 0 0 0 0 0 0 0 0 0 0 0 0 0 0 0 0 0 0 0 0 0 0 0 0 0 0 0 0 0 0 0 0 0 0
0 0 0 0 0 0 0 0 0 0 0 0 0 0 0 0 0 0 0 0 0 0 0 0 0 0 0 0 0 0 0 0 0 0 0 0 0 0 0 0 0 0 0 0 0
0 0 0 1 0 0 0 0 0 0 0 0 0 0 0 0 0 0 0 0 0 0 0 0 0 0 0 0 0 0 0 0 0 0 0 0 0 0 0 0 0 0 0 0 0
0 0 0 0 0 0 0 0 0 0 0 0 0 0 0 0 0 0 0 0 0 0 0 0 0 0 0 0 0 0 0 0 0 0 0 0 0 0 0 0 0 0 0 0 0
0 0 0 0 0 0 0 0 0 0 0 0 0 0 0 0 0 0 0 0 0 0 0 0 0 0 0 0 0 0 0 0 0 0 0 0 0 0 0 0 0 0 0 0 0
0 0 0 0 0 0 0 0 0 0 0 0 0 0 0 0 0 0 0 0 0 0 0 0 0 0 0 0 0 0 0 0 0 0 0 0 0 0 0 0 0 0 0 0 0
0 0 0 0 0 4 0 0 0 0 0 0 0 0 0 0 0 0 0 0 0 0 0 0 0 0 0 0 0 0 0 0 0 0 0 0 0 0 0 0 0 0 0 0 0
8 1 0 0 1 0 0 0 0 0 0 0 0 0 0 0 0 0 0 0 0 0 0 0 0 0 0 0 0 0 0 0 0 0 0 0 0 0 0 0 0 0 0 0 0
1 0 0 1 0 0 0 0 0 0 0 0 0 0 0 0 0 0 0 0 0 0 0 0 0 0 0 0 0 0 0 0 0 0 0 0 0 0 0 0 0 0 0 0 0
0 1 1 4 2 0 0 0 26 0 0 0 0 0 0 0 0 0 0 0 0 0 0 0 0 0 0 0 0 0 0 0 0 0 0 0 0 0 0 0 0 0 0 0 0
0 1 1 1 1 0 8 4 0 1 0 0 0 0 0 0 0 0 0 0 0 0 0 0 0 0 0 0 0 0 0 0 0 0 0 0 0 0 0 0 0 0 0 0 0
0 4 3 2 0 0 26 1 0 0 0 0 0 0 0 0 0 0 0 0 0 0 0 0 0 0 0 0 0 0 0 0 0 0 0 0 0 0 0 0 0 0 0 0 0
0 2 6 0 3 1 9 0 0 0 0 0 0 0 0 0 0 0 0 0 0 0 0 0 0 0 0 0 0 0 0 0 0 0 0 0 0 0 0 0 0 0 0 0 0
0 16 0 0 2 4 7 0 0 0 0 0 0 0 0 0 0 0 0 0 0 0 0 0 0 0 0 0 0 0 0 0 0 0 0 0 0 0 0 0 0 0 0 0 0
0 0 0 0 28 11 8 1 0 0 0 0 0 0 0 0 0 0 0 0 0 0 0 0 0 0 0 0 0 0 0 0 0 0 0 0 0 0 0 0 0 0 0 0 0
4 0 15 103 81 83 5 4 0 0 0 0 0 0 0 0 0 0 0 0 0 0 0 0 0 0 0 0 0 0 0 0 0 0 0 0 0 0 0 0 0 0 0 0 0
18 0 4 86 31 10 15 3 0 0 0 0 0 0 0 0 0 0 0 0 0 0 0 0 0 0 0 0 0 0 0 0 0 0 0 0 0 0 0 0 0 0 0 0 0
23 7 10 12 7 4 9 15 6 9 1 0 0 0 1 2 0 0 0 0 0 0 0 0 0 0 0 0 0 0 0 0 0 0 0 0 0 0 0 0 0 0 0 0 0
12 3 1 25 0 0 0 2 25 14 5 1 1 2 1 3 3 0 0 0 0 0 0 0 0 0 0 0 0 0 0 0 0 0 0 0 0 0 0 0 0 0 0 0 0
3 3 19 0 0 3 1 0 0 1 10 12 6 1 1 11 1 0 0 0 0 0 0 0 0 0 0 0 0 0 0 0 0 0 0 0 0 0 0 0 0 0 0 0 0
27 5 10 1 0 0 3 3 10 23 8 9 6 5 2 0 9 2 1 0 0 0 0 0 0 0 0 0 0 0 0 0 0 0 0 0 0 0 0 0 0 0 0 0 0
CIN
0 0 0 0 0 0 0 0 0 0 0 0 0 0 0 0 0 0 0 0 0 0 0 0 0 0 0 0 0 0 0 0 0 0 0 0 0 0 0 0 0 0 0 0 0
0 0 0 0 0 0 0 0 0 0 0 0 0 0 0 0 0 0 0 0 0 0 0 0 0 0 0 0 0 0 0 0 0 0 0 0 0 0 0 0 0 0 0 0 0
0 0 0 0 0 0 0 0 0 0 0 0 0 0 0 0 0 0 0 0 0 0 0 0 0 0 0 0 0 0 0 0 0 0 0 0 0 0 0 0 0 0 0 0 0
0 0 0 0 0 0 0 0 0 0 0 0 0 0 0 0 0 0 0 0 0 0 0 0 0 0 0 0 0 0 0 0 0 0 0 0 0 0 0 0 0 0 0 0 0
0 0 0 0 0 0 0 0 0 0 0 0 0 0 0 0 0 0 0 0 0 0 0 0 0 0 0 0 0 0 0 0 0 0 0 0 0 0 0 0 0 0 0 0 0
0 0 0 0 0 0 0 0 0 0 0 0 0 0 0 0 0 0 0 0 0 0 0 0 0 0 0 0 0 0 0 0 0 0 0 0 0 0 0 0 0 0 0 0 0
0 0 0 0 0 0 0 0 0 0 0 0 0 0 0 0 0 0 0 0 0 0 0 0 0 0 0 0 0 0 0 0 0 0 0 0 0 0 0 0 0 0 0 0 0
0 -1 0 0 0 0 0 0 0 0 0 0 0 0 0 0 0 0 0 0 0 0 0 0 0 0 0 0 0 0 0 0 0 0 0 0 0 0 0 0 0 0 0 0 0
0 0 0 -1 0 0 0 0 0 0 0 0 0 0 0 0 0 0 0 0 0 0 0 0 0 0 0 0 0 0 0 0 0 0 0 0 0 0 0 0 0 0 0 0 0
0 0 0 0 0 0 0 0 0 0 0 0 0 0 0 0 0 0 0 0 0 0 0 0 0 0 0 0 0 0 0 0 0 0 0 0 0 0 0 0 0 0 0 0 0
0 0 0 0 0 0 0 0 0 0 0 0 0 0 0 0 0 0 0 0 0 0 0 0 0 0 0 0 0 0 0 0 0 0 0 0 0 0 0 0 0 0 0 0 0
0 0 0 0 0 0 0 0 0 0 0 0 0 0 0 0 0 0 0 0 0 0 0 0 0 0 0 0 0 0 0 0 0 0 0 0 0 0 0 0 0 0 0 0 0
0 0 0 0 -1 0 0 0 0 0 0 0 0 0 0 0 0 0 0 0 0 0 0 0 0 0 0 0 0 0 0 0 0 0 0 0 0 0 0 0 0 0 0 0 0
-82 0 0 0 0 0 0 0 0 0 0 0 0 0 0 0 0 0 0 0 0 0 0 0 0 0 0 0 0 0 0 0 0 0 0 0 0 0 0 0 0 0 0 0 0
0 0 0 0 0 0 0 0 0 0 0 0 0 0 0 0 0 0 0 0 0 0 0 0 0 0 0 0 0 0 0 0 0 0 0 0 0 0 0 0 0 0 0 0 0
0 0 0 0 0 0 0 0 -23 0 0 0 0 0 0 0 0 0 0 0 0 0 0 0 0 0 0 0 0 0 0 0 0 0 0 0 0 0 0 0 0 0 0 0 0
0 0 0 0 0 -2 -15 -10 0 0 0 0 0 0 0 0 0 0 0 0 0 0 0 0 0 0 0 0 0 0 0 0 0 0 0 0 0 0 0 0 0 0 0 0 0
0 0 0 0 0 0 0 0 0 0 0 0 0 0 0 0 0 0 0 0 0 0 0 0 0 0 0 0 0 0 0 0 0 0 0 0 0 0 0 0 0 0 0 0 0
0 0 0 0 0 0 -9 0 0 0 0 0 0 0 0 0 0 0 0 0 0 0 0 0 0 0 0 0 0 0 0 0 0 0 0 0 0 0 0 0 0 0 0 0 0
0 -1 0 0 -39 0 -25 0 0 0 0 0 0 0 0 0 0 0 0 0 0 0 0 0 0 0 0 0 0 0 0 0 0 0 0 0 0 0 0 0 0 0 0 0 0
0 -1 0 0 -3 -140 -18 0 0 0 0 0 0 0 0 0 0 0 0 0 0 0 0 0 0 0 0 0 0 0 0 0 0 0 0 0 0 0 0 0 0 0 0 0 0
-3 0 -6 -3 0 0 -21 0 0 0 0 0 0 0 0 0 0 0 0 0 0 0 0 0 0 0 0 0 0 0 0 0 0 0 0 0 0 0 0 0 0 0 0 0 0
0 0 -6 -1 0 0 -1 -1 0 -1 0 0 0 0 0 0 0 0 0 0 0 0 0 0 0 0 0 0 0 0 0 0 0 0 0 0 0 0 0 0 0 0 0 0 0
-2 -2 -6 -5 -3 -8 0 0 0 -4 -1 0 0 0 -1 0 0 -1 0 0 0 0 0 0 0 0 0 0 0 0 0 0 0 0 0 0 0 0 0 0 0 0 0 0 0
-19 -2 -1 0 0 0 0 -1 -1 -1 -2 -5 -1 -1 0 0 0 0 0 0 0 0 0 0 0 0 0 0 0 0 0 0 0 0 0 0 0 0 0 0 0 0 0 0 0
-15 -1 -7 0 0 0 -2 0 0 0 -7 0 0 0 -1 0 0 0 0 0 0 0 0 0 0 0 0 0 0 0 0 0 0 0 0 0 0 0 0 0 0 0 0 0 0
-5 -10 -7 -1 0 0 0 -4 -2 -1 -4 0 -2 -1 0 -1 0 -5 -3 0 0 0 0 0 0 0 0 0 0 0 0 0 0 0 0 0 0 0 0 0 0 0 0 0 0
Wind_Speed
13 13 14 15 15 15 16 17 17 18 18 18 18 18 18 19 18 15 15 16 17 17 17 16 16 16 16 15 15 15 14 16 18 12 12 12 11 12 12 10 13 14 12 12 13
15 15 15 16 17 17 17 17 18 19 19 19 20 20 20 20 17 17 17 18 18 16 15 16 16 16 15 15 15 14 14 16 18 17 11 10 10 8 10 9 12 12 12 11 10
17 17 17 17 18 18 19 19 19 20 20 20 21 21 21 19 16 17 18 17 16 16 16 16 16 15 15 15 15 16 14 17 17 17 13 9 11 10 8 8 8 6 8 9 10
20 19 19 20 20 20 20 21 21 21 21 22 22 23 23 17 15 16 16 16 15 16 15 14 14 15 15 15 16 18 16 17 17 18 14 11 11 9 10 11 12 7 7 8 8
23 22 22 22 22 22 22 22 22 22 23 23 23 23 19 19 19 17 16 15 14 13 13 14 15 17 17 16 18 18 17 17 16 16 14 13 10 9 10 7 9 8 7 7 7
26 26 25 24 24 24 24 24 24 24 24 24 24 23 20 23 16 16 15 15 15 15 15 15 16 17 18 18 18 18 20 19 15 14 14 12 11 12 9 4 7 7 8 8 7
28 28 28 27 27 26 26 26 26 26 26 25 25 22 23 25 18 16 15 16 16 16 15 16 17 16 18 18 17 19 23 22 15 13 15 13 13 7 7 4 7 7 8 9 9
29 29 29 29 28 28 28 29 29 28 28 27 26 23 27 20 19 18 17 17 16 17 15 16 16 16 17 16 19 21 21 22 19 9 13 14 18 19 5 4 7 7 9 10 11
27 28 30 30 30 30 30 31 31 30 29 28 24 24 30 20 21 19 17 17 16 16 17 16 16 17 17 19 24 21 22 18 23 10 15 14 24 19 8 7 8 8 9 9 10
27 25 27 29 30 31 31 32 31 31 27 25 26 28 26 23 18 16 17 13 18 16 18 18 19 20 18 18 25 23 23 23 24 17 16 18 18 20 11 11 9 8 9 10 9
32 28 26 27 29 30 30 29 32 31 29 30 26 26 21 20 18 19 17 15 16 19 23 21 25 22 17 16 20 23 26 28 27 22 17 18 24 22 15 14 13 12 11 11 11
35 33 31 29 27 27 27 30 30 27 38 35 36 34 26 22 26 21 15 19 21 25 21 24 31 23 21 19 20 22 28 31 31 23 22 27 28 30 25 15 14 14 13 14 15
31 32 30 27 25 26 30 30 24 24 37 40 35 36 30 26 32 25 18 22 25 26 24 29 26 20 20 22 24 24 25 28 29 27 27 34 45 38 30 20 17 16 17 17 16
27 25 26 24 31 29 32 27 22 23 41 44 35 36 30 26 38 26 21 24 27 29 27 33 26 26 24 25 21 29 24 26 30 31 33 25 53 33 28 26 19 17 19 19 18
29 23 22 17 26 29 28 19 18 22 47 33 32 26 24 28 28 31 24 28 32 28 26 33 27 25 28 27 20 28 22 24 27 30 34 31 41 39 24 22 19 18 18 18 17
33 28 21 30 32 32 23 16 18 35 52 34 28 31 28 30 31 26 27 25 27 31 33 34 26 26 26 23 20 18 23 26 28 30 40 27 31 45 28 27 28 23 18 16 15
33 31 26 24 40 20 16 19 32 41 36 39 36 30 32 33 33 30 29 31 31 33 36 34 33 27 24 25 22 21 23 33 36 34 42 29 34 32 24 22 25 27 19 14 12
34 32 30 29 25 17 17 26 42 39 39 29 28 29 36 32 36 33 31 34 33 30 31 32 39 29 24 25 25 22 21 25 37 37 39 28 33 32 18 17 26 28 17 11 10
34 31 34 31 25 24 30 43 44 39 32 32 29 35 37 32 30 31 36 40 34 28 30 29 34 21 19 21 17 24 24 23 32 32 41 33 36 39 28 26 27 24 13 12 11
32 33 39 29 26 27 42 46 46 37 30 30 40 33 36 34 35 31 33 34 36 27 25 27 34 27 23 18 21 21 17 25 24 34 41 38 38 33 28 22 21 20 14 11 10
31 37 34 25 27 36 57 48 49 37 36 30 38 36 38 34 34 37 39 37 28 26 25 28 30 30 22 25 23 23 26 24 23 27 39 52 43 25 24 20 17 13 11 8 10
33 42 29 20 41 42 53 46 45 47 42 40 39 41 41 36 37 40 42 35 23 23 27 28 30 36 32 29 29 28 28 25 29 33 35 40 55 24 27 26 21 20 15 12 10
38 41 32 27 49 53 46 44 48 48 46 40 45 41 42 43 42 46 45 36 28 26 26 23 32 38 41 36 30 31 28 29 33 35 37 40 40 26 26 25 24 23 19 17 14
35 43 39 38 47 45 51 55 56 46 49 46 50 48 45 43 45 46 41 36 32 30 25 22 33 40 45 42 31 36 34 32 32 40 39 39 42 37 32 28 24 22 17 15 15
36 44 38 40 49 53 52 41 54 55 45 46 55 52 51 50 48 54 53 41 35 32 31 29 41 40 44 38 32 34 33 33 36 39 40 42 40 38 32 32 29 27 22 20 19
37 41 39 49 42 38 52 59 54 51 43 51 57 52 53 56 50 54 48 44 42 35 34 31 44 40 48 42 42 43 40 39 38 40 43 44 45 35 34 33 31 29 26 25 24
38 35 37 45 49 50 47 44 46 39 43 47 46 49 54 55 54 54 47 43 39 38 39 37 40 40 52 42 44 51 46 42 44 42 40 46 44 40 40 39 38 35 29 27 25
Wind_Direction
290 293 294 292 293 295 295 294 294 294 292 291 288 283 282 280 272 276 282 270 269 267 273 276 285 292 299 324 325 337 358 355 334 18 36 82 59 6 23 32 1 346 22 49 75
290 291 293 293 290 291 291 292 291 291 289 287 283 281 281 282 280 280 269 270 273 282 287 289 296 302 313 320 327 339 347 345 344 337 39 62 48 49 5 19 355 355 10 27 38
288 288 288 288 289 290 289 290 288 287 287 285 282 280 281 282 290 283 276 283 287 287 290 292 300 308 318 322 327 334 344 339 334 342 359 32 18 22 18 1 3 49 51 28 18
282 284 284 284 285 286 287 287 286 286 285 285 283 282 281 286 291 285 290 292 295 289 299 307 309 314 320 326 328 323 336 336 333 334 347 1 4 11 351 346 349 47 49 17 21
278 279 280 282 283 284 284 283 284 285 285 286 286 286 286 280 280 291 295 300 301 305 312 311 310 308 310 319 323 322 329 334 339 340 341 344 353 356 349 4 1 11 6 5 8
275 275 277 278 280 281 282 281 282 283 285 287 288 288 283 277 293 298 303 303 301 305 311 311 312 314 309 315 319 323 320 328 340 338 338 338 339 337 344 9 346 342 338 341 347
273 275 276 276 277 279 280 280 281 282 284 286 289 291 281 275 290 297 302 302 302 303 311 312 313 317 317 320 328 324 314 319 327 333 332 336 324 307 328 331 324 324 322 323 323
275 274 275 277 277 278 279 279 280 281 282 284 287 288 277 287 290 291 296 298 303 304 311 315 316 319 316 326 322 319 320 319 327 333 331 327 315 318 320 311 310 315 312 309 312
279 277 275 276 277 278 279 279 279 280 281 283 286 283 276 288 284 288 291 295 301 305 306 313 315 312 317 312 310 314 314 321 319 328 325 319 313 323 332 312 305 301 303 302 302
279 281 280 277 278 279 280 279 280 281 282 284 281 279 276 280 288 291 290 295 294 299 301 302 301 298 306 306 303 309 310 312 314 317 311 309 308 314 314 305 295 288 291 290 285
273 278 282 283 280 280 282 282 276 275 272 268 274 274 279 282 289 285 285 289 296 292 285 290 286 289 294 294 303 305 304 304 308 318 309 301 302 305 298 296 291 280 273 269 268
267 273 277 281 282 280 280 272 274 281 273 270 269 268 276 277 276 278 282 281 282 281 286 286 282 291 298 296 296 299 299 299 302 308 303 303 298 298 300 281 268 260 257 265 277
275 270 271 275 280 278 272 272 287 289 275 271 268 267 268 266 269 265 264 278 280 277 277 279 290 305 288 292 294 295 295 301 301 307 305 302 291 292 296 288 280 264 268 269 257
275 274 266 270 270 271 271 274 282 292 272 269 268 271 263 264 268 265 256 274 276 275 279 281 281 289 294 289 290 292 299 299 299 300 299 306 274 297 300 300 293 258 267 261 261
277 269 268 254 271 265 274 268 274 282 266 272 265 277 263 256 267 265 263 270 267 271 276 280 284 280 279 284 286 294 304 302 299 296 296 295 295 296 303 298 292 276 276 264 254
279 271 261 261 269 272 272 268 266 260 259 270 268 262 256 260 269 272 262 272 274 272 274 277 288 286 286 294 286 295 299 302 301 298 288 290 291 289 301 304 307 307 294 270 252
281 274 260 261 259 269 265 254 258 255 269 264 266 263 261 260 265 264 259 258 262 269 269 277 277 285 285 285 289 283 290 290 291 289 288 299 290 282 307 306 310 310 301 278 249
284 272 268 259 264 247 265 255 257 257 255 272 272 265 261 263 264 263 262 260 261 269 279 273 279 267 274 271 278 272 270 281 290 291 295 301 292 300 300 300 307 309 300 274 246
284 273 264 261 252 250 249 256 256 257 261 261 268 266 264 265 269 263 263 264 263 252 266 277 279 286 281 276 263 278 265 281 289 295 293 295 295 297 302 304 308 311 295 259 241
280 272 263 257 247 247 250 251 253 261 266 259 258 261 261 260 262 261 262 271 267 255 262 275 280 285 281 276 276 272 284 279 279 288 289 295 297 296 307 305 304 307 299 277 253
275 268 266 252 244 250 247 250 254 262 261 264 259 263 264 264 262 263 266 270 268 264 244 265 271 281 275 268 260 270 272 279 281 281 292 290 293 310 310 312 308 302 296 275 248
268 261 267 244 246 253 250 251 257 255 260 262 263 261 263 266 264 263 264 267 272 261 255 253 271 267 269 281 275 270 266 261 273 283 287 290 256 303 310 315 314 305 294 282 260
262 260 265 255 250 249 254 258 257 254 253 257 258 263 261 264 266 266 266 268 270 258 261 253 263 268 274 276 276 268 267 259 273 285 277 285 256 310 310 309 310 301 294 282 270
260 258 256 253 253 253 253 254 255 257 255 257 259 261 263 264 261 266 268 270 264 259 257 248 263 261 264 275 273 267 263 261 263 273 279 266 281 289 299 303 306 303 297 285 269
256 254 255 254 252 252 254 259 253 254 258 256 257 258 258 260 260 260 262 272 272 259 254 252 262 265 267 273 271 272 266 262 260 260 273 271 277 284 285 290 291 296 292 285 274
258 251 255 254 258 259 253 252 256 258 258 257 254 259 258 258 257 262 264 262 264 265 255 256 266 265 268 268 268 271 271 264 262 268 272 274 265 289 293 291 288 286 281 276 272
255 262 256 255 254 253 254 255 255 258 260 261 262 262 259 259 260 263 266 269 267 264 256 255 260 266 268 269 272 271 250 267 271 269 271 270 259 286 284 283 285 285 279 273 269